[[{"header":{"parameterUnit":"m.s-1","parameterCategory":1,"la1":30.2992,"la2":30.254,"lo1":-89.0895,"lo2":-89.0443,"dy":0.0025,"dx":0.0025,"nx":19,"ny":19,"refTime":"2026-04-15T09:00:00:Z","depth":0,"parameterNumber":2,"parameterNumberName":"U-component_of_WINDS"},"data":[0,0,0,-0.012,-0.0119,-0.0076,-0.0076,-0.0021,-0.002,0,0,0,0,0,0,0,0,0,0,0,-0.0132,-0.0132,-0.012,-0.0119,-0.0076,-0.0076,-0.0021,-0.002,0,0,0,0,0,0,0,0,0,0,0,-0.0132,-0.0132,-0.0131,-0.0118,-0.0076,-0.0076,-0.0021,-0.0053,0,0,0,0,0,0,0,0,0,0,-0.0095,-0.0107,-0.0132,-0.0131,-0.0118,-0.0076,-0.0076,-0.0055,-0.0051,-0.004,0,-0.003,0,-0.0024,-0.0017,-0.0016,0,0,0,-0.0119,-0.011,-0.0098,-0.0131,-0.0118,-0.0076,-0.0095,-0.0053,-0.0049,-0.0035,-0.0029,-0.0027,-0.0023,-0.0016,-0.0016,0.0052,0.0053,0,0,-0.0121,-0.0125,-0.0101,-0.0095,-0.0102,-0.0097,-0.0094,-0.005,-0.0044,-0.0029,-0.0026,-0.0022,-0.0016,-0.0015,0.0052,0.0052,0,0,0,-0.0128,-0.0126,-0.0116,-0.0098,-0.009,-0.0095,-0.0092,-0.0046,-0.0042,-0.0025,-0.0022,-0.0015,-0.0015,0.0052,0.0052,0.0065,0,0,0,-0.0129,-0.013,-0.0117,-0.0119,-0.0091,-0.0068,-0.0089,-0.0045,-0.004,-0.0022,-0.0015,-0.0014,0.0051,0.0052,0.0064,0.0072,0,0,0,-0.0135,-0.0131,-0.0125,-0.0119,-0.0101,-0.0068,-0.0062,-0.0044,-0.0038,-0.0016,-0.0014,0.0051,0.0052,0.0063,0.007,0.009,0,0,0,-0.0143,-0.0115,-0.0125,-0.0092,-0.0101,-0.006,-0.0062,-0.0032,-0.0011,-0.0015,0.0051,0.0052,0.0063,0.0069,0.0088,0.0105,0.0112,0,0,-0.011,-0.0111,-0.0091,-0.0099,-0.0057,-0.0066,-0.0022,-0.0001,0.0004,0.0036,0.0038,0.0065,0.007,0.0089,0.015,0.0156,0,0,0,-0.0082,-0.0068,-0.0056,-0.0036,-0.0018,-0.0002,0.0014,0.0022,0.005,0.002,0.0077,0.008,0.0092,0.01,0.0104,0.0115,0.0056,0.0056,0.0056,-0.0042,-0.0035,-0.0002,0.0011,0.003,0.0047,0.0064,0.0078,0.0077,0.0091,0.01,0.0137,0.0146,0.0149,0.016,0.011,0.011,0.011,0.011,0.0007,0.0028,0.003,0.0063,0.007,0.0097,0.0116,0.0115,0.0143,0.0129,0.014,0.0125,0.0155,0.0165,0.0111,0.0111,0.0111,0.011,0.011,0.0034,0.0045,0.0056,0.0088,0.0111,0.0123,0.015,0.0155,0.016,0.0171,0.0182,0.0182,0.0182,0.0176,0.0176,0.0176,0.0176,0.0176,0.0176,0.0057,0.0069,0.0091,0.0115,0.013,0.015,0.017,0.0185,0.0203,0.0204,0.0204,0.0203,0.0157,0.0145,0.0178,0.0178,0.0178,0.0178,0.0177,0.0103,0.0094,0.0128,0.0143,0.0173,0.0197,0.0205,0.0236,0.0249,0.0262,0.026,0.0225,0.0223,0.022,0.021,0.0258,0.0258,0.0258,0.0258,0.0125,0.0126,0.0163,0.0188,0.0212,0.0224,0.0263,0.028,0.0296,0.0305,0.0299,0.0287,0.0283,0.0284,0.0279,0.027,0.0332,0.0332,0.0332,0.0154,0.0158,0.019,0.0207,0.0231,0.0253,0.0291,0.0319,0.0335,0.0335,0.0312,0.0309,0.0289,0.0283,0.028,0.0273,0.0256,0,0]},{"header":{"parameterUnit":"m.s-1","parameterCategory":1,"la1":30.2992,"la2":30.254,"lo1":-89.0895,"lo2":-89.0443,"dy":0.0025,"dx":0.0025,"nx":19,"ny":19,"refTime":"2026-04-15T09:00:00:Z","depth":0,"parameterNumber":3,"parameterNumberName":"V-component_of_WINDS"},"data":[0,0,0,1.8978,1.8983,1.9261,1.9262,1.9612,1.9615,0,0,0,0,0,0,0,0,0,0,0,1.8887,1.8889,1.8977,1.8984,1.9261,1.9262,1.9612,1.9615,0,0,0,0,0,0,0,0,0,0,0,1.8886,1.8889,1.8891,1.8985,1.926,1.9262,1.9611,1.9405,0,0,0,0,0,0,0,0,0,0,1.9137,1.9044,1.8888,1.8891,1.8986,1.926,1.9262,1.9395,1.9417,1.9483,0,1.9534,0,1.9579,1.9638,1.9639,0,0,0,1.8992,1.9025,1.9106,1.8891,1.8989,1.926,1.9138,1.9408,1.9433,1.9513,1.9539,1.9552,1.9585,1.964,1.9642,1.9981,1.9982,0,0,1.8976,1.8934,1.9088,1.9122,1.9073,1.9129,1.9146,1.9423,1.9451,1.954,1.956,1.9591,1.9642,1.9645,1.998,1.9981,0,0,0,1.8927,1.8923,1.8998,1.9108,1.9157,1.9137,1.9157,1.9439,1.9466,1.9564,1.9595,1.9644,1.9648,1.9978,1.998,1.9999,0,0,0,1.8918,1.8894,1.8991,1.8968,1.9152,1.93,1.9166,1.9447,1.948,1.9593,1.9644,1.9652,1.9977,1.9979,1.9996,2.0017,0,0,0,1.8872,1.8889,1.8925,1.8965,1.9082,1.9297,1.9341,1.9455,1.9498,1.9639,1.9652,1.9976,1.9979,1.9993,2.0012,2.0095,0,0,0,1.8812,1.894,1.8925,1.908,1.9079,1.9304,1.9339,1.951,1.9633,1.9646,1.9977,1.998,1.9992,2.0009,2.0091,2.0159,2.0182,0,0,1.895,1.8955,1.905,1.9045,1.926,1.9265,1.9486,1.9641,1.9696,1.9884,1.9893,1.9997,2.0011,2.0094,2.0321,2.0339,0,0,0,1.908,1.9148,1.9214,1.9326,1.9444,1.9549,1.9673,1.9731,1.9892,1.9781,2.0049,2.0059,2.011,2.0145,2.016,2.0208,1.9993,1.9993,1.9992,1.9218,1.9276,1.9438,1.9531,1.964,1.9766,1.9862,1.9962,1.9993,2.0055,2.0112,2.0242,2.028,2.0292,2.0341,2.015,2.015,2.015,2.015,1.9428,1.9535,1.9568,1.9737,1.9801,1.9946,2.0074,2.0091,2.0239,2.0203,2.0251,2.021,2.031,2.0356,2.0152,2.0152,2.0152,2.0152,2.0151,1.9527,1.9589,1.9653,1.9822,1.9947,2.0038,2.0177,2.0231,2.0283,2.0329,2.0398,2.0398,2.0408,2.0357,2.0358,2.0358,2.0359,2.0359,2.0359,1.9606,1.9678,1.9786,1.9921,2.0001,2.0113,2.0242,2.0324,2.043,2.0458,2.0459,2.0486,2.0306,2.0262,2.0367,2.0366,2.0365,2.0364,2.0363,1.9803,1.9767,1.9934,2.0013,2.0178,2.03,2.0364,2.0527,2.0603,2.0672,2.0688,2.0544,2.0555,2.0544,2.0508,2.0671,2.0671,2.0671,2.0671,1.989,1.9898,2.0082,2.0206,2.0334,2.0409,2.0602,2.0704,2.0805,2.0857,2.0841,2.0796,2.0782,2.0802,2.0785,2.0752,2.0974,2.0974,2.0974,2.0016,2.0039,2.0191,2.0283,2.0416,2.0531,2.0715,2.0861,2.0969,2.0988,2.09,2.0887,2.0816,2.0789,2.081,2.0781,2.0723,0,0]}]]